Stündliche Wetter Labazy

Heute, 18 Mai, Dienstag

Zeit Temperatur Niederschläge Wind Luftdruck Luftfeuchtigkeit
00:00 +21°C° 0 mm 0 m/S 756 mmHg 35%
01:00 +20°C° 0 mm 0 m/S 756 mmHg 35%
02:00 +22°C° 0 mm 1 m/S 756 mmHg 35%
03:00 +21°C° 0 mm 1 m/S 755 mmHg 35%
04:00 +23°C° 0 mm 1 m/S 756 mmHg 36%
05:00 +24°C° 0 mm 1 m/S 756 mmHg 36%
06:00 +23°C° 0 mm 0 m/S 756 mmHg 37%
07:00 +27°C° 0 mm 1 m/S 756 mmHg 34%
08:00 +28°C° 0 mm 1 m/S 756 mmHg 31%
09:00 +30°C° 0 mm 1 m/S 755 mmHg 27%
10:00 +31°C° 0 mm 1 m/S 755 mmHg 24%
11:00 +32°C° 0 mm 2 m/S 755 mmHg 21%
12:00 +34°C° 0 mm 2 m/S 755 mmHg 18%
13:00 +34°C° 0 mm 2 m/S 755 mmHg 18%
14:00 +34°C° 0 mm 2 m/S 755 mmHg 18%
15:00 +34°C° 0 mm 2 m/S 754 mmHg 18%
16:00 +32°C° 0 mm 2 m/S 754 mmHg 23%
17:00 +31°C° 0 mm 2 m/S 754 mmHg 28%
18:00 +30°C° 0 mm 2 m/S 754 mmHg 33%
19:00 +28°C° 0 mm 2 m/S 754 mmHg 35%
20:00 +26°C° 0 mm 2 m/S 754 mmHg 36%
21:00 +24°C° 0 mm 2 m/S 754 mmHg 38%
22:00 +23°C° 0 mm 2 m/S 754 mmHg 45%
23:00 +21°C° 0 mm 3 m/S 754 mmHg 53%

Morgen, 19 Mai, Mittwoch

Zeit Temperatur Niederschläge Wind Luftdruck Luftfeuchtigkeit
00:00 +20°C° 0 mm 3 m/S 754 mmHg 61%
01:00 +20°C° 0 mm 3 m/S 754 mmHg 64%
02:00 +19°C° 0 mm 3 m/S 754 mmHg 67%
03:00 +19°C° 0 mm 3 m/S 754 mmHg 71%
04:00 +20°C° 0 mm 4 m/S 754 mmHg 68%
05:00 +21°C° 0 mm 4 m/S 754 mmHg 65%
06:00 +21°C° 0 mm 4 m/S 754 mmHg 62%
07:00 +23°C° 0 mm 5 m/S 754 mmHg 57%
08:00 +25°C° 0 mm 5 m/S 754 mmHg 51%
09:00 +27°C° 0 mm 6 m/S 754 mmHg 46%
10:00 +28°C° 0 mm 6 m/S 755 mmHg 43%
11:00 +29°C° 0 mm 6 m/S 755 mmHg 39%
12:00 +30°C° 0 mm 7 m/S 755 mmHg 36%
13:00 +29°C° 0 mm 7 m/S 755 mmHg 36%
14:00 +29°C° 0 mm 7 m/S 755 mmHg 37%
15:00 +29°C° 0 mm 7 m/S 755 mmHg 37%
16:00 +28°C° 0 mm 6 m/S 755 mmHg 41%
17:00 +27°C° 0 mm 6 m/S 755 mmHg 45%
18:00 +26°C° 0 mm 6 m/S 755 mmHg 50%
19:00 +25°C° 0 mm 5 m/S 755 mmHg 52%
20:00 +22°C° 0 mm 5 m/S 755 mmHg 55%
21:00 +21°C° 0 mm 5 m/S 756 mmHg 58%
22:00 +20°C° 0 mm 5 m/S 756 mmHg 57%
23:00 +20°C° 0 mm 5 m/S 756 mmHg 56%

übermorgen, 20 Mai, Donnerstag

Zeit Temperatur Niederschläge Wind Luftdruck Luftfeuchtigkeit
00:00 +19°C° 0 mm 6 m/S 756 mmHg 54%
01:00 +19°C° 0 mm 5 m/S 756 mmHg 56%
02:00 +17°C° 0 mm 5 m/S 756 mmHg 57%
03:00 +16°C° 0 mm 5 m/S 756 mmHg 58%
04:00 +16°C° 0 mm 5 m/S 756 mmHg 58%
05:00 +17°C° 0 mm 6 m/S 756 mmHg 57%
06:00 +17°C° 0 mm 6 m/S 756 mmHg 57%
07:00 +20°C° 0 mm 7 m/S 756 mmHg 53%
08:00 +21°C° 0 mm 7 m/S 756 mmHg 50%
09:00 +23°C° 0 mm 7 m/S 756 mmHg 47%
10:00 +24°C° 0 mm 7 m/S 756 mmHg 44%
11:00 +24°C° 0 mm 7 m/S 756 mmHg 42%
12:00 +26°C° 0 mm 7 m/S 755 mmHg 40%
13:00 +26°C° 0 mm 7 m/S 755 mmHg 40%
14:00 +26°C° 0 mm 7 m/S 755 mmHg 41%
15:00 +26°C° 0 mm 6 m/S 754 mmHg 41%
16:00 +24°C° 0.1 mm 6 m/S 754 mmHg 46%
17:00 +23°C° 0.1 mm 5 m/S 754 mmHg 50%
18:00 +22°C° 0.1 mm 5 m/S 754 mmHg 55%
19:00 +21°C° 0.1 mm 4 m/S 754 mmHg 64%
20:00 +19°C° 0.1 mm 3 m/S 754 mmHg 72%
21:00 +17°C° 0.1 mm 2 m/S 754 mmHg 81%
22:00 +17°C° 0.2 mm 3 m/S 754 mmHg 84%
23:00 +17°C° 0.2 mm 3 m/S 754 mmHg 87%

21 Mai, Freitag

Zeit Temperatur Niederschläge Wind Luftdruck Luftfeuchtigkeit
00:00 +16°C° 0.2 mm 3 m/S 754 mmHg 90%
01:00 +15°C° 0 mm 4 m/S 754 mmHg 92%
02:00 +14°C° 0 mm 4 m/S 754 mmHg 93%
03:00 +14°C° 0 mm 4 m/S 754 mmHg 95%
04:00 +15°C° 0 mm 4 m/S 755 mmHg 90%
05:00 +17°C° 0 mm 4 m/S 755 mmHg 85%
06:00 +18°C° 0 mm 4 m/S 755 mmHg 80%
07:00 +19°C° 0 mm 4 m/S 755 mmHg 70%
08:00 +21°C° 0 mm 5 m/S 756 mmHg 60%
09:00 +23°C° 0 mm 5 m/S 756 mmHg 51%
10:00 +23°C° 0 mm 5 m/S 756 mmHg 50%
11:00 +23°C° 0 mm 5 m/S 756 mmHg 50%
12:00 +23°C° 0 mm 4 m/S 756 mmHg 50%
13:00 +23°C° 0 mm 4 m/S 756 mmHg 48%
14:00 +25°C° 0 mm 4 m/S 757 mmHg 46%
15:00 +25°C° 0 mm 4 m/S 757 mmHg 44%
16:00 +24°C° 0 mm 3 m/S 757 mmHg 49%
17:00 +23°C° 0 mm 2 m/S 757 mmHg 53%
18:00 +23°C° 0 mm 1 m/S 757 mmHg 58%
19:00 +22°C° 0 mm 1 m/S 757 mmHg 59%
20:00 +19°C° 0 mm 0 m/S 758 mmHg 61%
21:00 +18°C° 0 mm 0 m/S 758 mmHg 63%
22:00 +17°C° 0 mm 0 m/S 758 mmHg 64%
23:00 +17°C° 0 mm 0 m/S 758 mmHg 65%

22 Mai, Samstag

Zeit Temperatur Niederschläge Wind Luftdruck Luftfeuchtigkeit
00:00 +17°C° 0 mm 0 m/S 758 mmHg 66%
01:00 +16°C° 0 mm 0 m/S 759 mmHg 68%
02:00 +16°C° 0 mm 0 m/S 759 mmHg 69%
03:00 +15°C° 0 mm 0 m/S 759 mmHg 71%
04:00 +16°C° 0 mm 0 m/S 759 mmHg 68%
05:00 +18°C° 0 mm 0 m/S 759 mmHg 64%
06:00 +19°C° 0 mm 0 m/S 760 mmHg 61%
07:00 +22°C° 0 mm 1 m/S 760 mmHg 56%
08:00 +24°C° 0 mm 1 m/S 760 mmHg 50%
09:00 +26°C° 0 mm 2 m/S 760 mmHg 45%
10:00 +27°C° 0 mm 2 m/S 759 mmHg 43%
11:00 +28°C° 0 mm 3 m/S 759 mmHg 40%
12:00 +29°C° 0 mm 3 m/S 759 mmHg 37%
13:00 +29°C° 0 mm 3 m/S 759 mmHg 36%
14:00 +29°C° 0 mm 3 m/S 759 mmHg 35%
15:00 +30°C° 0 mm 3 m/S 758 mmHg 34%
16:00 +29°C° 0 mm 3 m/S 758 mmHg 39%
17:00 +28°C° 0 mm 3 m/S 758 mmHg 44%
18:00 +27°C° 0 mm 2 m/S 758 mmHg 48%
19:00 +26°C° 0 mm 2 m/S 758 mmHg 50%
20:00 +24°C° 0 mm 2 m/S 758 mmHg 52%
21:00 +23°C° 0 mm 2 m/S 758 mmHg 54%
22:00 +21°C° 0 mm 2 m/S 758 mmHg 54%
23:00 +21°C° 0 mm 2 m/S 758 mmHg 54%

23 Mai, Sonntag

Zeit Temperatur Niederschläge Wind Luftdruck Luftfeuchtigkeit
00:00 +20°C° 0 mm 2 m/S 758 mmHg 54%
01:00 +20°C° 0 mm 2 m/S 758 mmHg 54%
02:00 +20°C° 0 mm 2 m/S 758 mmHg 55%
03:00 +19°C° 0 mm 2 m/S 758 mmHg 55%
04:00 +20°C° 0 mm 2 m/S 758 mmHg 55%
05:00 +21°C° 0 mm 2 m/S 758 mmHg 54%
06:00 +23°C° 0 mm 2 m/S 759 mmHg 53%
07:00 +25°C° 0 mm 3 m/S 758 mmHg 49%
08:00 +27°C° 0 mm 3 m/S 758 mmHg 45%
09:00 +29°C° 0 mm 4 m/S 758 mmHg 40%
10:00 +30°C° 0 mm 4 m/S 758 mmHg 37%
11:00 +32°C° 0 mm 4 m/S 758 mmHg 34%
12:00 +33°C° 0 mm 4 m/S 758 mmHg 31%
13:00 +33°C° 0 mm 3 m/S 758 mmHg 30%
14:00 +34°C° 0 mm 3 m/S 758 mmHg 30%
15:00 +34°C° 0 mm 3 m/S 757 mmHg 29%
16:00 +33°C° 0 mm 3 m/S 757 mmHg 34%
17:00 +31°C° 0 mm 3 m/S 757 mmHg 40%
18:00 +29°C° 0 mm 2 m/S 757 mmHg 45%
19:00 +28°C° 0 mm 2 m/S 757 mmHg 46%
20:00 +26°C° 0 mm 3 m/S 757 mmHg 46%
21:00 +25°C° 0 mm 3 m/S 757 mmHg 47%
22:00 +25°C° 0 mm 3 m/S 757 mmHg 46%
23:00 +24°C° 0 mm 3 m/S 757 mmHg 45%
Mehr zeigen

Wir brauchen deine Erlaubnis

Meteoprog und unser Service Anbieter werden persönliche Daten aufbewahren, so wie Cookies, Geräte Bezeichnung oder ähnliche Technologien von deinem Gerät und Prozess, so wie Persönliche Daten Inhalte und Werbungen, genauso wie social Media und den Verkehr zu analysieren.

  • Aufbewahrung und/oder Zugang zu deiner Geräte Informationen.

    Cookies, Geräte Bezeichnung oder andere Informationen, können aufbewahrt oder Zugang zu deinem Gerät erhalten, für den Grund, der oben angegeben wird.

  • Personalisierte Werbung und Inhalte, Messungen, Einblick in das Publikum und Produkt Entwicklung.

    Werbungen und Inhalte können personalisiert werden, basierend auf ein Profil. Mehr Daten können besser personalisierte Werbungen und Inhalte hinzufügen. Werbung und Inhalte können gezeigt und gemessen werden. Einblicke über das Publikum, welche die Werbung gesehen haben und den Inhalt, können abgeleitet werden. So wie Daten können genutzt werden, um es zu verbessern oder die Benutzer Erfahrung zu verbessern das System und die Software.

Wenn du “Ich stimme zu” klickst, erlaubst du uns, die Cookies zu benutzen die Geräte Bezeichnung, den Web oder ähnliche Technologien zu benutzen. Deine Settings, können in deinem Gerät bei deinem Browser geändert werden.

Für den bestimmten Zweck, berechtigten Interessen beruhen darauf, mehr als auf den Inhalt. Du kannst mehr darüber in unseren Privaten und Cookie Politik lesen.